Regional Weather Roundup
Issued by NWS Newport/Morehead, NC

Current Version | Previous Version | Graphics & Text | Print | Product List | Glossary On
Versions: 1 2 3 4 5 6 7 8 9 10 11 12 13 14 15 16 17 18 19 20 21 22 23 24 25 26 27 28 29 30 31 32 33 34 35 36 37 38 39 40 41 42 43 44 45 46 47 48 49 50
232 ASUS42 KMHX 241113 RWRMHX WEATHER ROUNDUP FOR EASTERN NORTH CAROLINA NATIONAL WEATHER SERVICE NEWPORT/MOREHEAD CITY NC 600 AM EST FRI FEB 24 2017 NOTE: "FAIR" INDICATES FEW OR NO CLOUDS BELOW 12,000 FEET WITH NO SIGNIFICANT WEATHER AND/OR OBSTRUCTIONS TO VISIBILITY NCZ015>017-031-032-045>047-102-103-241200- NORTH COAST CITY SKY/WX TMP DP RH WIND PRES REMARKS EDENTON CLEAR 55 53 94 CALM 29.94R ELIZABETH CITY CLEAR 54 53 97 SE5 29.94R KITTY HAWK NOT AVBL MANTEO CLOUDY 61 61 100 E8 29.95S FOG $$ NCZ045>047-081-094-103-104-241200- CENTRAL COAST CITY SKY/WX TMP DP RH WIND PRES REMARKS FRISCO PTCLDY 62 59 90 N5 29.93R $$ NCZ095-097-098-100-101-241200- SOUTHERN COAST CITY SKY/WX TMP DP RH WIND PRES REMARKS BEAUFORT CLOUDY 61 59 93 NE7 29.90F CEDAR ISLAND NOT AVBL JACKSONVILLE PTCLDY 59 59 100 NE5 29.91R PINEY ISLAND NOT AVBL WILMINGTON PTCLDY 54 54 100 NE3 29.90R FOG $$ NCZ011>013-027>030-043-044-078>080-089-090>093-098-241200- COASTAL PLAIN CITY SKY/WX TMP DP RH WIND PRES REMARKS AHOSKIE N/A 47 47 97 CALM 29.95R CLINTON CLEAR 51 51 100 CALM 29.93R ELIZABETHTOWN PTCLDY 52 52 100 CALM 29.91S GOLDSBORO FOG 52 52 100 CALM 29.91S VSB 1/4 GREENVILLE FOG 46 46 100 CALM 29.95R VSB 1 HAVELOCK PTCLDY 55 54 94 E3 29.92S KENANSVILLE LGT RAIN 48 48 100 CALM 29.92R FOG KINSTON CLOUDY 49 49 100 CALM 29.94R FOG NEW BERN CLEAR 51 51 100 CALM 29.92S RICHLANDS CLOUDY 54 54 100 N5 29.92R ROCKY MOUNT FOG 48 48 100 CALM 29.93S VSB 1/4 WASHINGTON MOCLDY 55 55 98 CALM 29.94R WHITEVILLE CLEAR 55 54 97 CALM 29.90R $$ AMZ130-135-150-152-154-156-158-170-250-252-270-ANZ085-086-088-633-658-670-241200- MARINE OBSERVATIONS STATION/POSITION TIME TEMP WIND PRES WAVE SWELL AIR SEA DIR/SP/G HT/PER HT/PER (UTC) (F) (DEG/KT/KT) (MB) (FT/S) (FT/S) CHESAPEAKE LIGHT NOT AVBL 64 E VA BEACH 1050 56 54 80/ 4/ 4 1014.3 4/11 3/11 DUCK 1048 53 49 120/ 7/ 8 1013.7 2 E DUCK 1100 50 N/A 4/12 2/12 OREGON INLET 1042 59 55 70/ 4/ 5 1013.9 13E OREGON INLT NOT AVBL HATTERAS CG 1048 62 62 30/ 4/ 6 1013.1 DIAMOND BUOY 1050 71 73 120/ 14/ 17 1012.8 7/ 7 5/ 7 CAPE LOOKOUT 1100 62 30/ 4/ 5 1012.3 BEAUFORT LAB 1048 61 60 350/ 5/ 8 1011.7 30 SE NEW RVR IN 1008 67 50/ 8/ 12 1012.0 30 SE NEW RVR IN 1043 70 N/A 8/11 3/11 27 SE WRIGHTSVLE 1008 66 66 30/ 8/ 14 1010.8 5 SE WRIGHTSVLE 1008 59 58 50/ 10/ 14 1011.7 225 S CAPE HAT 1050 69 70 70/ 23/ 25 1007.6 12/10 10/10 41 SE CHARLESTON 1050 69 70 30/ 10/ 12 1009.9 9/10 10/10 $$

USA.gov is the U.S. government's official web portal to all federal, state and local government web resources and services.